Location: *
(24.1434°N, 56.8729°E)
Time: 18:43:46
(UTC+00:00)

Cosmos 1140 Rocket - Pass Details

Date: 09 April 2020
Orbit: 745 x 767 km, 74.1° (Epoch: 05 June)

Event Time Altitude Azimuth Distance (km) Brightness Sun altitude
Rises 14:57:12 0° 175° (S) 3,208 6.6 -6.5°
Reaches altitude 10° 14:59:42 10° 167° (SSE) 2,282 5.7 -7.1°
Maximum altitude 15:04:27 38° 101° (E) 1,152 3.9 -8.1°
Drops below altitude 10° 15:09:11 10° 34° (NE) 2,277 5.7 -9.2°
Sets 15:11:41 0° 26° (NNE) 3,200 6.6 -9.7°
